owner,sensor,date,latitude,longitude,vertical_datum,sea_water_practical_salinity,qcFlag 
DISL,ioos:station:DISL:CATA:1,2013-03-01T00:00:00Z,30.3085,-88.1395,2.019,2.92,1111122 
DISL,ioos:station:DISL:CATA:1,2013-03-01T00:30:00Z,30.3085,-88.1395,1.996,2.94,1111122 
DISL,ioos:station:DISL:CATA:1,2013-03-01T01:00:00Z,30.3085,-88.1395,1.974,2.82,1111122 
DISL,ioos:station:DISL:CATA:1,2013-03-01T01:30:00Z,30.3085,-88.1395,1.954,2.79,1111122 
DISL,ioos:station:DISL:CATA:1,2013-03-01T02:00:00Z,30.3085,-88.1395,1.935,3.01,1111122 
DISL,ioos:station:DISL:CATA:1,2013-03-01T02:30:00Z,30.3085,-88.1395,1.933,3.09,1111122 
DISL,ioos:station:DISL:CATA:1,2013-03-01T03:00:00Z,30.3085,-88.1395,1.92,2.95,1111122 
DISL,ioos:station:DISL:CATA:1,2013-03-01T03:30:00Z,30.3085,-88.1395,1.931,2.76,1111122 
DISL,ioos:station:DISL:CATA:1,2013-03-01T04:00:00Z,30.3085,-88.1395,1.943,2.69,1111122 
DISL,ioos:station:DISL:CATA:1,2013-03-01T04:30:00Z,30.3085,-88.1395,1.944,2.72,1111122 
DISL,ioos:station:DISL:CATA:1,2013-03-01T05:00:00Z,30.3085,-88.1395,1.944,2.66,1111122 
DISL,ioos:station:DISL:CATA:1,2013-03-01T05:30:00Z,30.3085,-88.1395,1.941,2.69,1111122 
DISL,ioos:station:DISL:CATA:1,2013-03-01T06:00:00Z,30.3085,-88.1395,1.953,2.76,1111122 
DISL,ioos:station:DISL:CATA:1,2013-03-01T06:30:00Z,30.3085,-88.1395,1.966,2.83,1111122 
DISL,ioos:station:DISL:CATA:1,2013-03-01T07:00:00Z,30.3085,-88.1395,1.947,2.76,1111122 
DISL,ioos:station:DISL:CATA:1,2013-03-01T07:30:00Z,30.3085,-88.1395,1.939,2.74,1111122 
DISL,ioos:station:DISL:CATA:1,2013-03-01T08:00:00Z,30.3085,-88.1395,1.949,2.51,1111122 
DISL,ioos:station:DISL:CATA:1,2013-03-01T08:30:00Z,30.3085,-88.1395,1.954,2.49,1111122 
DISL,ioos:station:DISL:CATA:1,2013-03-01T09:00:00Z,30.3085,-88.1395,1.955,2.49,1111122 
DISL,ioos:station:DISL:CATA:1,2013-03-01T09:30:00Z,30.3085,-88.1395,1.953,2.37,1111122 
DISL,ioos:station:DISL:CATA:1,2013-03-01T10:00:00Z,30.3085,-88.1395,1.945,2.3,1111122 
DISL,ioos:station:DISL:CATA:1,2013-03-01T10:30:00Z,30.3085,-88.1395,1.947,2.3,1111122 
DISL,ioos:station:DISL:CATA:1,2013-03-01T11:00:00Z,30.3085,-88.1395,1.948,2.32,1111122 
DISL,ioos:station:DISL:CATA:1,2013-03-01T11:30:00Z,30.3085,-88.1395,1.954,2.21,1111122 
DISL,ioos:station:DISL:CATA:1,2013-03-01T12:00:00Z,30.3085,-88.1395,1.968,2.21,1111122 
DISL,ioos:station:DISL:CATA:1,2013-03-01T12:30:00Z,30.3085,-88.1395,1.983,2.21,1111122 
DISL,ioos:station:DISL:CATA:1,2013-03-01T13:00:00Z,30.3085,-88.1395,2.0,2.19,1111122 
DISL,ioos:station:DISL:CATA:1,2013-03-01T13:30:00Z,30.3085,-88.1395,2.01,2.24,1111122 
DISL,ioos:station:DISL:CATA:1,2013-03-01T14:00:00Z,30.3085,-88.1395,2.005,2.2,1111122 
DISL,ioos:station:DISL:CATA:1,2013-03-01T14:30:00Z,30.3085,-88.1395,2.021,2.2,1111122 
DISL,ioos:station:DISL:CATA:1,2013-03-01T15:00:00Z,30.3085,-88.1395,2.02,2.14,1111122 
DISL,ioos:station:DISL:CATA:1,2013-03-01T15:30:00Z,30.3085,-88.1395,2.068,2.05,1111122 
DISL,ioos:station:DISL:CATA:1,2013-03-01T16:00:00Z,30.3085,-88.1395,2.091,2.04,1111122 
DISL,ioos:station:DISL:CATA:1,2013-03-01T16:30:00Z,30.3085,-88.1395,2.117,2.1,1111122 
DISL,ioos:station:DISL:CATA:1,2013-03-01T17:00:00Z,30.3085,-88.1395,2.134,2.01,1111122 
DISL,ioos:station:DISL:CATA:1,2013-03-01T17:30:00Z,30.3085,-88.1395,2.156,2.02,1111122 
DISL,ioos:station:DISL:CATA:1,2013-03-01T18:00:00Z,30.3085,-88.1395,2.16,2.02,1111122 
DISL,ioos:station:DISL:CATA:1,2013-03-01T18:30:00Z,30.3085,-88.1395,2.166,2.04,1111122 
DISL,ioos:station:DISL:CATA:1,2013-03-01T19:00:00Z,30.3085,-88.1395,2.171,2.08,1111122 
DISL,ioos:station:DISL:CATA:1,2013-03-01T19:30:00Z,30.3085,-88.1395,2.179,2.08,1111122 
DISL,ioos:station:DISL:CATA:1,2013-03-01T20:00:00Z,30.3085,-88.1395,2.184,2.22,1111122 
DISL,ioos:station:DISL:CATA:1,2013-03-01T20:30:00Z,30.3085,-88.1395,2.181,2.35,1111122 
DISL,ioos:station:DISL:CATA:1,2013-03-01T21:00:00Z,30.3085,-88.1395,2.17,2.7,1111122 
DISL,ioos:station:DISL:CATA:1,2013-03-01T21:30:00Z,30.3085,-88.1395,2.163,3.23,1111122 
DISL,ioos:station:DISL:CATA:1,2013-03-01T22:00:00Z,30.3085,-88.1395,2.142,3.58,1111122 
DISL,ioos:station:DISL:CATA:1,2013-03-01T22:30:00Z,30.3085,-88.1395,2.128,3.67,1111122 
DISL,ioos:station:DISL:CATA:1,2013-03-01T23:00:00Z,30.3085,-88.1395,2.115,3.76,1111122 
DISL,ioos:station:DISL:CATA:1,2013-03-01T23:30:00Z,30.3085,-88.1395,2.098,3.76,1111122 
DISL,ioos:station:DISL:CATA:1,2013-03-02T00:00:00Z,30.3085,-88.1395,2.073,3.71,1111122 
DISL,ioos:station:DISL:CATA:1,2013-03-02T00:30:00Z,30.3085,-88.1395,2.042,3.58,1111122 
DISL,ioos:station:DISL:CATA:1,2013-03-02T01:00:00Z,30.3085,-88.1395,2.004,2.61,1111122 
DISL,ioos:station:DISL:CATA:1,2013-03-02T01:30:00Z,30.3085,-88.1395,1.957,2.02,1111122 
DISL,ioos:station:DISL:CATA:1,2013-03-02T02:00:00Z,30.3085,-88.1395,1.927,2.07,1111122 
DISL,ioos:station:DISL:CATA:1,2013-03-02T02:30:00Z,30.3085,-88.1395,1.896,2.07,1111122 
DISL,ioos:station:DISL:CATA:1,2013-03-02T03:00:00Z,30.3085,-88.1395,1.884,2.12,1111122 
DISL,ioos:station:DISL:CATA:1,2013-03-02T03:30:00Z,30.3085,-88.1395,1.867,2.15,1111122 
DISL,ioos:station:DISL:CATA:1,2013-03-02T04:00:00Z,30.3085,-88.1395,1.851,2.29,1111122 
DISL,ioos:station:DISL:CATA:1,2013-03-02T04:30:00Z,30.3085,-88.1395,1.823,2.3,1111122 
DISL,ioos:station:DISL:CATA:1,2013-03-02T05:00:00Z,30.3085,-88.1395,1.812,2.27,1111122 
DISL,ioos:station:DISL:CATA:1,2013-03-02T05:30:00Z,30.3085,-88.1395,1.772,2.26,1111122 
DISL,ioos:station:DISL:CATA:1,2013-03-02T06:00:00Z,30.3085,-88.1395,1.725,2.24,1111122 
DISL,ioos:station:DISL:CATA:1,2013-03-02T06:30:00Z,30.3085,-88.1395,1.739,2.28,1111122 
DISL,ioos:station:DISL:CATA:1,2013-03-02T07:00:00Z,30.3085,-88.1395,1.747,2.29,1111122 
DISL,ioos:station:DISL:CATA:1,2013-03-02T07:30:00Z,30.3085,-88.1395,1.746,2.27,1111122 
DISL,ioos:station:DISL:CATA:1,2013-03-02T08:00:00Z,30.3085,-88.1395,1.778,2.18,1111122 
DISL,ioos:station:DISL:CATA:1,2013-03-02T08:30:00Z,30.3085,-88.1395,1.818,2.12,1111122 
DISL,ioos:station:DISL:CATA:1,2013-03-02T09:00:00Z,30.3085,-88.1395,1.875,2.09,1111122 
DISL,ioos:station:DISL:CATA:1,2013-03-02T09:30:00Z,30.3085,-88.1395,1.898,2.2,1111122 
DISL,ioos:station:DISL:CATA:1,2013-03-02T10:00:00Z,30.3085,-88.1395,1.907,2.28,1111122 
DISL,ioos:station:DISL:CATA:1,2013-03-02T10:30:00Z,30.3085,-88.1395,1.916,2.27,1111122 
DISL,ioos:station:DISL:CATA:1,2013-03-02T11:00:00Z,30.3085,-88.1395,1.912,2.25,1111122 
DISL,ioos:station:DISL:CATA:1,2013-03-02T11:30:00Z,30.3085,-88.1395,1.919,2.22,1111122 
DISL,ioos:station:DISL:CATA:1,2013-03-02T12:00:00Z,30.3085,-88.1395,1.923,2.23,1111122 
DISL,ioos:station:DISL:CATA:1,2013-03-02T12:30:00Z,30.3085,-88.1395,1.931,2.27,1111122 
DISL,ioos:station:DISL:CATA:1,2013-03-02T13:00:00Z,30.3085,-88.1395,1.951,2.28,1111122 
DISL,ioos:station:DISL:CATA:1,2013-03-02T13:30:00Z,30.3085,-88.1395,1.974,2.23,1111122 
DISL,ioos:station:DISL:CATA:1,2013-03-02T14:00:00Z,30.3085,-88.1395,2.005,2.21,1111122 
DISL,ioos:station:DISL:CATA:1,2013-03-02T14:30:00Z,30.3085,-88.1395,2.029,2.21,1111122 
DISL,ioos:station:DISL:CATA:1,2013-03-02T15:00:00Z,30.3085,-88.1395,2.052,2.22,1111122 
DISL,ioos:station:DISL:CATA:1,2013-03-02T15:30:00Z,30.3085,-88.1395,2.064,2.24,1111122 
DISL,ioos:station:DISL:CATA:1,2013-03-02T16:00:00Z,30.3085,-88.1395,2.083,2.26,1111122 
DISL,ioos:station:DISL:CATA:1,2013-03-02T16:30:00Z,30.3085,-88.1395,2.102,2.28,1111122 
DISL,ioos:station:DISL:CATA:1,2013-03-02T17:00:00Z,30.3085,-88.1395,2.131,2.28,1111122 
DISL,ioos:station:DISL:CATA:1,2013-03-02T17:30:00Z,30.3085,-88.1395,2.155,2.3,1111122 
DISL,ioos:station:DISL:CATA:1,2013-03-02T18:00:00Z,30.3085,-88.1395,2.164,2.3,1111122 
DISL,ioos:station:DISL:CATA:1,2013-03-02T18:30:00Z,30.3085,-88.1395,2.186,2.32,1111122 
DISL,ioos:station:DISL:CATA:1,2013-03-02T19:00:00Z,30.3085,-88.1395,2.196,2.21,1111122 
DISL,ioos:station:DISL:CATA:1,2013-03-02T19:30:00Z,30.3085,-88.1395,2.2,2.15,1111122 
DISL,ioos:station:DISL:CATA:1,2013-03-02T20:00:00Z,30.3085,-88.1395,2.214,2.19,1111122 
DISL,ioos:station:DISL:CATA:1,2013-03-02T20:30:00Z,30.3085,-88.1395,2.194,2.25,1111122 
DISL,ioos:station:DISL:CATA:1,2013-03-02T21:00:00Z,30.3085,-88.1395,2.177,2.3,1111122 
DISL,ioos:station:DISL:CATA:1,2013-03-02T21:30:00Z,30.3085,-88.1395,2.166,2.4,1111122 
DISL,ioos:station:DISL:CATA:1,2013-03-02T22:00:00Z,30.3085,-88.1395,2.134,2.43,1111122 
DISL,ioos:station:DISL:CATA:1,2013-03-02T22:30:00Z,30.3085,-88.1395,2.115,2.27,1111122 
DISL,ioos:station:DISL:CATA:1,2013-03-02T23:00:00Z,30.3085,-88.1395,2.07,2.63,1111122 
DISL,ioos:station:DISL:CATA:1,2013-03-02T23:30:00Z,30.3085,-88.1395,2.03,2.48,1111122 
DISL,ioos:station:DISL:CATA:1,2013-03-03T00:00:00Z,30.3085,-88.1395,2.005,2.09,1111122 
DISL,ioos:station:DISL:CATA:1,2013-03-03T00:30:00Z,30.3085,-88.1395,1.956,2.09,1111122 
DISL,ioos:station:DISL:CATA:1,2013-03-03T01:00:00Z,30.3085,-88.1395,1.914,2.15,1111122 
DISL,ioos:station:DISL:CATA:1,2013-03-03T01:30:00Z,30.3085,-88.1395,1.877,2.23,1111122 
DISL,ioos:station:DISL:CATA:1,2013-03-03T02:00:00Z,30.3085,-88.1395,1.839,2.42,1111122 
DISL,ioos:station:DISL:CATA:1,2013-03-03T02:30:00Z,30.3085,-88.1395,1.802,2.46,1111122 
DISL,ioos:station:DISL:CATA:1,2013-03-03T03:00:00Z,30.3085,-88.1395,1.768,2.29,1111122 
DISL,ioos:station:DISL:CATA:1,2013-03-03T03:30:00Z,30.3085,-88.1395,1.75,1.99,1111122 
DISL,ioos:station:DISL:CATA:1,2013-03-03T04:00:00Z,30.3085,-88.1395,1.728,2.1,1111122 
DISL,ioos:station:DISL:CATA:1,2013-03-03T04:30:00Z,30.3085,-88.1395,1.719,2.13,1111122 
DISL,ioos:station:DISL:CATA:1,2013-03-03T05:00:00Z,30.3085,-88.1395,1.722,2.12,1111122 
DISL,ioos:station:DISL:CATA:1,2013-03-03T05:30:00Z,30.3085,-88.1395,1.702,2.12,1111122 
DISL,ioos:station:DISL:CATA:1,2013-03-03T06:00:00Z,30.3085,-88.1395,1.685,2.14,1111122 
DISL,ioos:station:DISL:CATA:1,2013-03-03T06:30:00Z,30.3085,-88.1395,1.681,2.15,1111122 
DISL,ioos:station:DISL:CATA:1,2013-03-03T07:00:00Z,30.3085,-88.1395,1.679,2.16,1111122 
DISL,ioos:station:DISL:CATA:1,2013-03-03T07:30:00Z,30.3085,-88.1395,1.687,2.16,1111122 
DISL,ioos:station:DISL:CATA:1,2013-03-03T08:00:00Z,30.3085,-88.1395,1.706,2.15,1111122 
DISL,ioos:station:DISL:CATA:1,2013-03-03T08:30:00Z,30.3085,-88.1395,1.693,2.16,1111122 
DISL,ioos:station:DISL:CATA:1,2013-03-03T09:00:00Z,30.3085,-88.1395,1.696,2.19,1111122 
DISL,ioos:station:DISL:CATA:1,2013-03-03T09:30:00Z,30.3085,-88.1395,1.708,2.2,1111122 
DISL,ioos:station:DISL:CATA:1,2013-03-03T10:00:00Z,30.3085,-88.1395,1.711,2.2,1111122 
DISL,ioos:station:DISL:CATA:1,2013-03-03T10:30:00Z,30.3085,-88.1395,1.722,2.21,1111122 
DISL,ioos:station:DISL:CATA:1,2013-03-03T11:00:00Z,30.3085,-88.1395,1.736,2.23,1111122 
DISL,ioos:station:DISL:CATA:1,2013-03-03T11:30:00Z,30.3085,-88.1395,1.746,2.24,1111122 
DISL,ioos:station:DISL:CATA:1,2013-03-03T12:00:00Z,30.3085,-88.1395,1.767,2.23,1111122 
DISL,ioos:station:DISL:CATA:1,2013-03-03T12:30:00Z,30.3085,-88.1395,1.775,2.12,1111122 
DISL,ioos:station:DISL:CATA:1,2013-03-03T13:00:00Z,30.3085,-88.1395,1.795,2.07,1111122 
DISL,ioos:station:DISL:CATA:1,2013-03-03T13:30:00Z,30.3085,-88.1395,1.824,2.16,1111122 
DISL,ioos:station:DISL:CATA:1,2013-03-03T14:00:00Z,30.3085,-88.1395,1.856,2.12,1111122 
DISL,ioos:station:DISL:CATA:1,2013-03-03T14:30:00Z,30.3085,-88.1395,1.877,2.15,1111122 
DISL,ioos:station:DISL:CATA:1,2013-03-03T15:00:00Z,30.3085,-88.1395,1.896,2.16,1111122 
DISL,ioos:station:DISL:CATA:1,2013-03-03T15:30:00Z,30.3085,-88.1395,1.915,2.17,1111122 
DISL,ioos:station:DISL:CATA:1,2013-03-03T16:00:00Z,30.3085,-88.1395,1.938,2.17,1111122 
DISL,ioos:station:DISL:CATA:1,2013-03-03T16:30:00Z,30.3085,-88.1395,1.967,2.17,1111122 
DISL,ioos:station:DISL:CATA:1,2013-03-03T17:00:00Z,30.3085,-88.1395,1.993,2.16,1111122 
DISL,ioos:station:DISL:CATA:1,2013-03-03T17:30:00Z,30.3085,-88.1395,2.026,2.13,1111122 
DISL,ioos:station:DISL:CATA:1,2013-03-03T18:00:00Z,30.3085,-88.1395,2.062,2.14,1111122 
DISL,ioos:station:DISL:CATA:1,2013-03-03T18:30:00Z,30.3085,-88.1395,2.099,2.13,1111122 
DISL,ioos:station:DISL:CATA:1,2013-03-03T19:00:00Z,30.3085,-88.1395,2.121,2.12,1111122 
DISL,ioos:station:DISL:CATA:1,2013-03-03T19:30:00Z,30.3085,-88.1395,2.13,2.11,1111122 
DISL,ioos:station:DISL:CATA:1,2013-03-03T20:00:00Z,30.3085,-88.1395,2.158,2.22,1111122 
DISL,ioos:station:DISL:CATA:1,2013-03-03T20:30:00Z,30.3085,-88.1395,2.157,2.27,1111122 
DISL,ioos:station:DISL:CATA:1,2013-03-03T21:00:00Z,30.3085,-88.1395,2.151,2.38,1111122 
DISL,ioos:station:DISL:CATA:1,2013-03-03T21:30:00Z,30.3085,-88.1395,2.167,2.89,1111122 
DISL,ioos:station:DISL:CATA:1,2013-03-03T22:00:00Z,30.3085,-88.1395,2.17,3.07,1111122 
DISL,ioos:station:DISL:CATA:1,2013-03-03T22:30:00Z,30.3085,-88.1395,2.157,3.19,1111122 
DISL,ioos:station:DISL:CATA:1,2013-03-03T23:00:00Z,30.3085,-88.1395,2.138,3.2,1111122 
DISL,ioos:station:DISL:CATA:1,2013-03-03T23:30:00Z,30.3085,-88.1395,2.116,3.26,1111122 
DISL,ioos:station:DISL:CATA:1,2013-03-04T00:00:00Z,30.3085,-88.1395,2.1,3.2,1111122 
DISL,ioos:station:DISL:CATA:1,2013-03-04T00:30:00Z,30.3085,-88.1395,2.073,3.17,1111122 
DISL,ioos:station:DISL:CATA:1,2013-03-04T01:00:00Z,30.3085,-88.1395,2.054,3.73,1111122 
DISL,ioos:station:DISL:CATA:1,2013-03-04T01:30:00Z,30.3085,-88.1395,2.022,4.63,1111122 
DISL,ioos:station:DISL:CATA:1,2013-03-04T02:00:00Z,30.3085,-88.1395,1.985,4.62,1111122 
DISL,ioos:station:DISL:CATA:1,2013-03-04T02:30:00Z,30.3085,-88.1395,1.943,4.12,1111122 
DISL,ioos:station:DISL:CATA:1,2013-03-04T03:00:00Z,30.3085,-88.1395,1.913,2.65,1111122 
DISL,ioos:station:DISL:CATA:1,2013-03-04T03:30:00Z,30.3085,-88.1395,1.887,1.91,1111122 
DISL,ioos:station:DISL:CATA:1,2013-03-04T04:00:00Z,30.3085,-88.1395,1.857,1.99,1111122 
DISL,ioos:station:DISL:CATA:1,2013-03-04T04:30:00Z,30.3085,-88.1395,1.837,2.11,1111122 
DISL,ioos:station:DISL:CATA:1,2013-03-04T05:00:00Z,30.3085,-88.1395,1.806,2.06,1111122 
DISL,ioos:station:DISL:CATA:1,2013-03-04T05:30:00Z,30.3085,-88.1395,1.774,2.0,1111122 
DISL,ioos:station:DISL:CATA:1,2013-03-04T06:00:00Z,30.3085,-88.1395,1.749,1.97,1111122 
DISL,ioos:station:DISL:CATA:1,2013-03-04T06:30:00Z,30.3085,-88.1395,1.724,2.01,1111122 
DISL,ioos:station:DISL:CATA:1,2013-03-04T07:00:00Z,30.3085,-88.1395,1.72,2.06,1111122 
DISL,ioos:station:DISL:CATA:1,2013-03-04T07:30:00Z,30.3085,-88.1395,1.71,2.1,1111122 
DISL,ioos:station:DISL:CATA:1,2013-03-04T08:00:00Z,30.3085,-88.1395,1.734,2.19,1111122 
DISL,ioos:station:DISL:CATA:1,2013-03-04T08:30:00Z,30.3085,-88.1395,1.746,2.24,1111122 
DISL,ioos:station:DISL:CATA:1,2013-03-04T09:00:00Z,30.3085,-88.1395,1.754,2.22,1111122 
DISL,ioos:station:DISL:CATA:1,2013-03-04T09:30:00Z,30.3085,-88.1395,1.772,2.16,1111122 
DISL,ioos:station:DISL:CATA:1,2013-03-04T10:00:00Z,30.3085,-88.1395,1.776,2.12,1111122 
DISL,ioos:station:DISL:CATA:1,2013-03-04T10:30:00Z,30.3085,-88.1395,1.806,2.06,1111122 
DISL,ioos:station:DISL:CATA:1,2013-03-04T11:00:00Z,30.3085,-88.1395,1.821,2.07,1111122 
DISL,ioos:station:DISL:CATA:1,2013-03-04T11:30:00Z,30.3085,-88.1395,1.833,2.0,1111122 
DISL,ioos:station:DISL:CATA:1,2013-03-04T12:00:00Z,30.3085,-88.1395,1.864,2.02,1111122 
DISL,ioos:station:DISL:CATA:1,2013-03-04T12:30:00Z,30.3085,-88.1395,1.88,2.02,1111122 
DISL,ioos:station:DISL:CATA:1,2013-03-04T13:00:00Z,30.3085,-88.1395,1.915,2.02,1111122 
DISL,ioos:station:DISL:CATA:1,2013-03-04T13:30:00Z,30.3085,-88.1395,1.943,2.0,1111122 
DISL,ioos:station:DISL:CATA:1,2013-03-04T14:00:00Z,30.3085,-88.1395,1.979,1.98,1111122 
DISL,ioos:station:DISL:CATA:1,2013-03-04T14:30:00Z,30.3085,-88.1395,2.014,1.98,1111122 
DISL,ioos:station:DISL:CATA:1,2013-03-04T15:00:00Z,30.3085,-88.1395,2.054,1.99,1111122 
DISL,ioos:station:DISL:CATA:1,2013-03-04T15:30:00Z,30.3085,-88.1395,2.083,1.95,1111122 
DISL,ioos:station:DISL:CATA:1,2013-03-04T16:00:00Z,30.3085,-88.1395,2.111,1.96,1111122 
DISL,ioos:station:DISL:CATA:1,2013-03-04T16:30:00Z,30.3085,-88.1395,2.15,1.99,1111122 
DISL,ioos:station:DISL:CATA:1,2013-03-04T17:00:00Z,30.3085,-88.1395,2.18,2.07,1111122 
DISL,ioos:station:DISL:CATA:1,2013-03-04T17:30:00Z,30.3085,-88.1395,2.202,2.35,1111122 
DISL,ioos:station:DISL:CATA:1,2013-03-04T18:00:00Z,30.3085,-88.1395,2.242,2.51,1111122 
DISL,ioos:station:DISL:CATA:1,2013-03-04T18:30:00Z,30.3085,-88.1395,2.281,2.57,1111122 
DISL,ioos:station:DISL:CATA:1,2013-03-04T19:00:00Z,30.3085,-88.1395,2.316,2.68,1111122 
DISL,ioos:station:DISL:CATA:1,2013-03-04T19:30:00Z,30.3085,-88.1395,2.332,2.97,1111122 
DISL,ioos:station:DISL:CATA:1,2013-03-04T20:00:00Z,30.3085,-88.1395,2.352,3.09,1111122 
DISL,ioos:station:DISL:CATA:1,2013-03-04T20:30:00Z,30.3085,-88.1395,2.367,3.2,1111122 
DISL,ioos:station:DISL:CATA:1,2013-03-04T21:00:00Z,30.3085,-88.1395,2.374,3.23,1111122 
DISL,ioos:station:DISL:CATA:1,2013-03-04T21:30:00Z,30.3085,-88.1395,2.374,3.24,1111122 
DISL,ioos:station:DISL:CATA:1,2013-03-04T22:00:00Z,30.3085,-88.1395,2.36,3.03,1111122 
DISL,ioos:station:DISL:CATA:1,2013-03-04T22:30:00Z,30.3085,-88.1395,2.34,2.67,1111122 
DISL,ioos:station:DISL:CATA:1,2013-03-04T23:00:00Z,30.3085,-88.1395,2.33,2.22,1111122 
DISL,ioos:station:DISL:CATA:1,2013-03-04T23:30:00Z,30.3085,-88.1395,2.304,1.99,1111122 
DISL,ioos:station:DISL:CATA:1,2013-03-05T00:00:00Z,30.3085,-88.1395,2.273,1.97,1111122 
DISL,ioos:station:DISL:CATA:1,2013-03-05T00:30:00Z,30.3085,-88.1395,2.251,2.0,1111122 
DISL,ioos:station:DISL:CATA:1,2013-03-05T01:00:00Z,30.3085,-88.1395,2.209,2.03,1111122 
DISL,ioos:station:DISL:CATA:1,2013-03-05T01:30:00Z,30.3085,-88.1395,2.19,2.11,1111122 
DISL,ioos:station:DISL:CATA:1,2013-03-05T02:00:00Z,30.3085,-88.1395,2.157,2.17,1111122 
DISL,ioos:station:DISL:CATA:1,2013-03-05T02:30:00Z,30.3085,-88.1395,2.119,2.04,1111122 
DISL,ioos:station:DISL:CATA:1,2013-03-05T03:00:00Z,30.3085,-88.1395,2.088,1.98,1111122 
DISL,ioos:station:DISL:CATA:1,2013-03-05T03:30:00Z,30.3085,-88.1395,2.06,1.94,1111122 
DISL,ioos:station:DISL:CATA:1,2013-03-05T04:00:00Z,30.3085,-88.1395,2.029,1.94,1111122 
DISL,ioos:station:DISL:CATA:1,2013-03-05T04:30:00Z,30.3085,-88.1395,1.997,1.96,1111122 
DISL,ioos:station:DISL:CATA:1,2013-03-05T05:00:00Z,30.3085,-88.1395,1.976,1.99,1111122 
DISL,ioos:station:DISL:CATA:1,2013-03-05T05:30:00Z,30.3085,-88.1395,1.956,2.05,1111122 
DISL,ioos:station:DISL:CATA:1,2013-03-05T06:00:00Z,30.3085,-88.1395,1.941,2.05,1111122 
DISL,ioos:station:DISL:CATA:1,2013-03-05T06:30:00Z,30.3085,-88.1395,1.911,2.15,1111122 
DISL,ioos:station:DISL:CATA:1,2013-03-05T07:00:00Z,30.3085,-88.1395,1.887,2.23,1111122 
DISL,ioos:station:DISL:CATA:1,2013-03-05T07:30:00Z,30.3085,-88.1395,1.889,2.27,1111122 
DISL,ioos:station:DISL:CATA:1,2013-03-05T08:00:00Z,30.3085,-88.1395,1.874,2.32,1111122 
DISL,ioos:station:DISL:CATA:1,2013-03-05T08:30:00Z,30.3085,-88.1395,1.868,2.36,1111122 
DISL,ioos:station:DISL:CATA:1,2013-03-05T09:00:00Z,30.3085,-88.1395,1.878,2.37,1111122 
DISL,ioos:station:DISL:CATA:1,2013-03-05T09:30:00Z,30.3085,-88.1395,1.875,2.38,1111122 
DISL,ioos:station:DISL:CATA:1,2013-03-05T10:00:00Z,30.3085,-88.1395,1.881,2.4,1111122 
DISL,ioos:station:DISL:CATA:1,2013-03-05T10:30:00Z,30.3085,-88.1395,1.898,2.42,1111122 
DISL,ioos:station:DISL:CATA:1,2013-03-05T11:00:00Z,30.3085,-88.1395,1.91,2.45,1111122 
DISL,ioos:station:DISL:CATA:1,2013-03-05T11:30:00Z,30.3085,-88.1395,1.93,2.53,1111122 
DISL,ioos:station:DISL:CATA:1,2013-03-05T12:00:00Z,30.3085,-88.1395,1.938,2.57,1111122 
DISL,ioos:station:DISL:CATA:1,2013-03-05T12:30:00Z,30.3085,-88.1395,1.96,2.58,1111122 
DISL,ioos:station:DISL:CATA:1,2013-03-05T13:00:00Z,30.3085,-88.1395,1.991,2.57,1111122 
DISL,ioos:station:DISL:CATA:1,2013-03-05T13:30:00Z,30.3085,-88.1395,2.021,2.62,1111122 
DISL,ioos:station:DISL:CATA:1,2013-03-05T14:00:00Z,30.3085,-88.1395,2.061,2.62,1111122 
DISL,ioos:station:DISL:CATA:1,2013-03-05T14:30:00Z,30.3085,-88.1395,2.078,2.6,1111122 
DISL,ioos:station:DISL:CATA:1,2013-03-05T15:00:00Z,30.3085,-88.1395,2.118,2.58,1111122 
DISL,ioos:station:DISL:CATA:1,2013-03-05T15:30:00Z,30.3085,-88.1395,2.151,2.59,1111122 
DISL,ioos:station:DISL:CATA:1,2013-03-05T16:00:00Z,30.3085,-88.1395,2.176,2.59,1111122 
DISL,ioos:station:DISL:CATA:1,2013-03-05T16:30:00Z,30.3085,-88.1395,2.201,2.59,1111122 
DISL,ioos:station:DISL:CATA:1,2013-03-05T17:00:00Z,30.3085,-88.1395,2.236,2.59,1111122 
DISL,ioos:station:DISL:CATA:1,2013-03-05T17:30:00Z,30.3085,-88.1395,2.265,2.58,1111122 
DISL,ioos:station:DISL:CATA:1,2013-03-05T18:00:00Z,30.3085,-88.1395,2.304,2.48,1111122 
DISL,ioos:station:DISL:CATA:1,2013-03-05T18:30:00Z,30.3085,-88.1395,2.34,2.3,1111122 
DISL,ioos:station:DISL:CATA:1,2013-03-05T19:00:00Z,30.3085,-88.1395,2.383,2.24,1111122 
DISL,ioos:station:DISL:CATA:1,2013-03-05T19:30:00Z,30.3085,-88.1395,2.424,2.23,1111122 
DISL,ioos:station:DISL:CATA:1,2013-03-05T20:00:00Z,30.3085,-88.1395,2.452,2.2,1111122 
DISL,ioos:station:DISL:CATA:1,2013-03-05T20:30:00Z,30.3085,-88.1395,2.49,2.13,1111122 
DISL,ioos:station:DISL:CATA:1,2013-03-05T21:00:00Z,30.3085,-88.1395,2.532,2.04,1111122 
DISL,ioos:station:DISL:CATA:1,2013-03-05T21:30:00Z,30.3085,-88.1395,2.557,2.1,1111122 
DISL,ioos:station:DISL:CATA:1,2013-03-05T22:00:00Z,30.3085,-88.1395,2.565,2.17,1111122 
DISL,ioos:station:DISL:CATA:1,2013-03-05T22:30:00Z,30.3085,-88.1395,2.546,2.23,1111122 
DISL,ioos:station:DISL:CATA:1,2013-03-05T23:00:00Z,30.3085,-88.1395,2.561,2.28,1111122 
DISL,ioos:station:DISL:CATA:1,2013-03-05T23:30:00Z,30.3085,-88.1395,2.559,2.36,1111122 
DISL,ioos:station:DISL:CATA:1,2013-03-06T00:00:00Z,30.3085,-88.1395,2.567,2.39,1111122 
DISL,ioos:station:DISL:CATA:1,2013-03-06T00:30:00Z,30.3085,-88.1395,2.533,2.3,1111122 
DISL,ioos:station:DISL:CATA:1,2013-03-06T01:00:00Z,30.3085,-88.1395,2.493,2.19,1111122 
DISL,ioos:station:DISL:CATA:1,2013-03-06T01:30:00Z,30.3085,-88.1395,2.49,2.46,1111122 
DISL,ioos:station:DISL:CATA:1,2013-03-06T02:00:00Z,30.3085,-88.1395,2.436,2.58,1111122 
DISL,ioos:station:DISL:CATA:1,2013-03-06T02:30:00Z,30.3085,-88.1395,2.359,2.57,1111122 
DISL,ioos:station:DISL:CATA:1,2013-03-06T03:00:00Z,30.3085,-88.1395,2.291,3.71,1111122 
DISL,ioos:station:DISL:CATA:1,2013-03-06T03:30:00Z,30.3085,-88.1395,2.258,7.65,1111122 
DISL,ioos:station:DISL:CATA:1,2013-03-06T04:00:00Z,30.3085,-88.1395,2.209,8.75,1111122 
DISL,ioos:station:DISL:CATA:1,2013-03-06T04:30:00Z,30.3085,-88.1395,2.152,8.53,1111122 
DISL,ioos:station:DISL:CATA:1,2013-03-06T05:00:00Z,30.3085,-88.1395,2.092,6.66,1111122 
DISL,ioos:station:DISL:CATA:1,2013-03-06T05:30:00Z,30.3085,-88.1395,2.025,5.71,1111122 
DISL,ioos:station:DISL:CATA:1,2013-03-06T06:00:00Z,30.3085,-88.1395,1.985,5.21,1111122 
DISL,ioos:station:DISL:CATA:1,2013-03-06T06:30:00Z,30.3085,-88.1395,1.946,4.68,1111122 
DISL,ioos:station:DISL:CATA:1,2013-03-06T07:00:00Z,30.3085,-88.1395,1.919,4.07,1111122 
DISL,ioos:station:DISL:CATA:1,2013-03-06T07:30:00Z,30.3085,-88.1395,1.895,3.58,1111122 
DISL,ioos:station:DISL:CATA:1,2013-03-06T08:00:00Z,30.3085,-88.1395,1.869,3.85,1111122 
DISL,ioos:station:DISL:CATA:1,2013-03-06T08:30:00Z,30.3085,-88.1395,1.87,4.05,1111122 
DISL,ioos:station:DISL:CATA:1,2013-03-06T09:00:00Z,30.3085,-88.1395,1.887,3.9,1111122 
DISL,ioos:station:DISL:CATA:1,2013-03-06T09:30:00Z,30.3085,-88.1395,1.902,3.57,1111122 
DISL,ioos:station:DISL:CATA:1,2013-03-06T10:00:00Z,30.3085,-88.1395,1.848,3.37,1111122 
DISL,ioos:station:DISL:CATA:1,2013-03-06T10:30:00Z,30.3085,-88.1395,1.812,3.31,1111122 
DISL,ioos:station:DISL:CATA:1,2013-03-06T11:00:00Z,30.3085,-88.1395,1.795,3.28,1111122 
DISL,ioos:station:DISL:CATA:1,2013-03-06T11:30:00Z,30.3085,-88.1395,1.771,3.2,1111122 
DISL,ioos:station:DISL:CATA:1,2013-03-06T12:00:00Z,30.3085,-88.1395,1.765,3.15,1111122 
DISL,ioos:station:DISL:CATA:1,2013-03-06T12:30:00Z,30.3085,-88.1395,1.786,3.16,1111122 
DISL,ioos:station:DISL:CATA:1,2013-03-06T13:00:00Z,30.3085,-88.1395,1.764,3.11,1111122 
DISL,ioos:station:DISL:CATA:1,2013-03-06T13:30:00Z,30.3085,-88.1395,1.769,3.22,1111122 
DISL,ioos:station:DISL:CATA:1,2013-03-06T14:00:00Z,30.3085,-88.1395,1.811,3.28,1111122 
DISL,ioos:station:DISL:CATA:1,2013-03-06T14:30:00Z,30.3085,-88.1395,1.862,3.36,1111122 
DISL,ioos:station:DISL:CATA:1,2013-03-06T15:00:00Z,30.3085,-88.1395,1.913,3.38,1111122 
DISL,ioos:station:DISL:CATA:1,2013-03-06T15:30:00Z,30.3085,-88.1395,1.941,3.18,1111122 